Location: Cheching
(60.0667°N, 164.2167°W)
Time: 11:45:15
(UTC+00:00)

UNISAT 6 - Pass Details

Date: 20 January 2021
Orbit: 607 x 687 km, 97.7° (Epoch: 24 February)

Event Time Altitude Azimuth Distance (km) Brightness Sun altitude
Rises 18:01:45 0° 183° (S) 2,866 ? -10.8°
Reaches altitude 10° 18:04:00 10° 190° (S) 1,971 ? -10.5°
Maximum altitude 18:08:05 43° 262° (W) 881 ? -10.0°
Drops below altitude 10° 18:12:16 10° 335° (NNW) 2,017 ? -9.6°
Enters shadow 18:14:02 - 340° (NNW) 2,715 ? -9.4°
